PEGASUS DEB, 39323

Orbit data source: Space-Track

PEGASUS DEB, 39323 is space debris in LEO originally from a launch on Thu, 19 May 1994 UTC launched from the Air Force Western Test Range (AFWTR). Debris objects in space refer to the collection of defunct objects orbiting the Earth. Examples of debris include non-operational satellites, rocket bodies, and fragments generated from explosions, collisions, or faulty payload assembly.

Loading next visibility...
Identifier
39323, 1994-029AFJ
Orbit
LEO
Country
Flag of USUS
Related business
Manufacturer
Unknown
Mission
Spacecraft
Bus & Motor
Unknown
Mass
Unknown
Launch date (UTC)
1994-05-19 (32 years ago)
Launch vehicle
Unknown
Launch site
Air Force Western Test Range (AFWTR)
Object type
Payload
Rocket body
Debris
Shape & HBR
Unknown shape, 0.1 m
Radar Cross Section
Small (<0.1 m²)

Expand to show TLE details & history
Last TLE update: 3 days ago

TLE from 3 days ago
0 PEGASUS DEB
1 39323U 94029AFJ 26118.02760773  .00005198  00000-0  64587-3 0  9990
2 39323  81.9872  38.5149 0165617 140.4255 220.9184 14.73068508734118
Epoch: 2026-04-28T00:39Z
TLE epoch observation values (Epoch: 2026-04-28T00:39:45.307Z)
Latitude
-0.00009°
Longitude
172.5673°
Altitude
743.102 km
Speed
7.436 km/s
True Right ascension
02h 34m 03s
True Declination
0° 00' 00"
Sunlit
Object was in daylight at epoch
Visualization orbit readout
Latitude
Unknown
Longitude
Unknown
Altitude
Unknown
Speed
Unknown
Apparent Right ascension
Unknown
Apparent Declination
Unknown
Sunlit
N/A
Visualization observer readout
Local Sidereal Time
07:30:07
Azimuth
Unknown
Elevation
Unknown
Doppler factor
Unknown
Orbital elements
Apogee altitude
764.714 km
Perigee altitude
531.973 km
Semi-major axis
7,026.48 km
Eccentricity
0.01656
Inclination
81.9872°
RAAN
38.5149°
Arg. of periapsis
140.4255°
True anomaly
219.6946°
Mean anomaly
220.9184°
Eccentric anomaly
220.30459°
Mean motion
3.68499 °/min
Orbital period
97.69 mins
BSTAR
0.00064587
Loading maneuver chart data...
Computing Atmospheric mass density...
Loading historical data...
Loading historical data...
Loading historical data...
Loading historical data...
Loading historical data...
Loading historical data...
Loading historical data...

Documentation

Showing up to 5 results
|